This is the latest recevied weather packets stored in our database for station/object SP3ZBZ-13. If no packets are shown the sender has not sent any weather packets the latest 10 day(s).
| Time | Temp. | Humidity | Pressure | Rain* | Wind** | Luminosity | Snow |
|---|---|---|---|---|---|---|---|
| 1778070030 | 12.78° C | 86% | 1000.6 hPa | - | - | 92 W/m² | - |
| 1778069129 | 13.33° C | 81% | 1000.6 hPa | - | - | 129 W/m² | - |
| 1778068228 | 12.78° C | 81% | 1000.6 hPa | - | - | 258 W/m² | - |
| 1778067327 | 12.78° C | 82% | 1000.5 hPa | - | - | 182 W/m² | - |
| 1778066426 | 12.78° C | 82% | 1000.6 hPa | - | - | 134 W/m² | - |
| 1778065525 | 12.78° C | 81% | 1000.7 hPa | - | - | 135 W/m² | - |
| 1778064624 | 12.22° C | 82% | 1000.6 hPa | - | - | 152 W/m² | - |
| 1778063723 | 12.22° C | 83% | 1000.7 hPa | - | - | 97 W/m² | - |
| 1778062822 | 12.22° C | 82% | 1000.7 hPa | - | - | 133 W/m² | - |
| 1778061921 | 12.22° C | 84% | 1000.6 hPa | - | - | 115 W/m² | - |
| 1778061020 | 11.67° C | 84% | 1000.5 hPa | - | - | 181 W/m² | - |
| 1778060119 | 11.67° C | 85% | 1000.7 hPa | - | - | 128 W/m² | - |
| 1778059218 | 11.11° C | 84% | 1000.6 hPa | - | - | 158 W/m² | - |
| 1778058317 | 11.11° C | 85% | 1000.5 hPa | - | - | 165 W/m² | - |
| 1778057417 | 11.11° C | 86% | 1000.6 hPa | - | - | 100 W/m² | - |
| 1778056515 | 10.56° C | 87% | 1000.6 hPa | - | - | 115 W/m² | - |
| 1778055615 | 10.56° C | 87% | 1000.7 hPa | - | - | 108 W/m² | - |
| 1778054714 | 10.56° C | 87% | 1000.7 hPa | - | - | 101 W/m² | - |
| 1778053812 | 10° C | 88% | 1000.7 hPa | - | - | 93 W/m² | - |
| 1778052911 | 10° C | 89% | 1000.6 hPa | - | - | 76 W/m² | - |
| 1778052011 | 10° C | 89% | 1000.7 hPa | - | - | 84 W/m² | - |
| 1778051109 | 10° C | 88% | 1000.4 hPa | - | - | 76 W/m² | - |
| 1778050209 | 10° C | 88% | 1000.4 hPa | - | - | 50 W/m² | - |
| 1778049307 | 10° C | 88% | 1000.4 hPa | - | - | 47 W/m² | - |
| 1778048407 | 9.44° C | 88% | 1000.6 hPa | - | - | 33 W/m² | - |
* Rain since midnight (hover to see other rain measurements)
** Current wind speed in m/s (hover to see current wind gust speed)